BAW6822 LGMK-EGKK

Flight info

Callsign BAW6822
Flight time 3h 36m
Altitude 36000
Route VARIX1V VARIX UL995 KEA UL52 KOR UL613 YNN UL611 TUMBO DCT OVVER DCT RODON DCT VAKSU DCT ROTAR DCT BORMI DCT RESIA DCT ELMUR DCT RIPUS DCT DITON DCT HOC DCT LUL DCT RLP DCT ROTSI DCT KOTUN DCT NINAL DCT KESAX DCT KUNAV KUNAV1G
Aircraft A321/M-SDE3FGHIRWY/LB1

Departure

Time 2026-05-06 19:45
Airport Mykonos Island National Airport (LGMK)

Arrival

Time 2026-05-06 23:21
Airport London Gatwick Airport (EGKK)
Time Latitude Longitude Altitude Speed Heading
2026-05-06 19:16 37.43508 25.34648 407 ft 0 kts 251°
2026-05-06 19:34 37.43509 25.34654 380 ft 4 kts 253°
2026-05-06 19:37 37.43513 25.34668 381 ft 4 kts 247°
2026-05-06 19:37 37.43520 25.34692 408 ft 4 kts 270°
2026-05-06 19:37 37.43511 25.34708 408 ft 2 kts 341°
2026-05-06 19:38 37.43523 25.34702 408 ft 4 kts 331°
2026-05-06 19:38 37.43519 25.34687 408 ft 1 kts 251°
2026-05-06 19:38 37.43523 25.34699 408 ft 4 kts 299°
2026-05-06 19:38 37.43508 25.34710 406 ft 4 kts 341°
2026-05-06 19:39 37.43487 25.34719 408 ft 0 kts 341°
2026-05-06 19:41 37.43494 25.34716 405 ft 2 kts 341°
2026-05-06 19:41 37.43517 25.34706 408 ft 5 kts 341°
2026-05-06 19:41 37.43556 25.34689 408 ft 7 kts 341°
2026-05-06 19:41 37.43606 25.34673 408 ft 8 kts 355°
2026-05-06 19:42 37.43653 25.34698 409 ft 7 kts 28°
2026-05-06 19:42 37.43688 25.34722 411 ft 6 kts 28°
2026-05-06 19:42 37.43736 25.34721 411 ft 9 kts 343°
2026-05-06 19:42 37.43806 25.34694 411 ft 12 kts 341°
2026-05-06 19:43 37.43892 25.34655 412 ft 15 kts 339°
2026-05-06 19:43 37.43998 25.34606 410 ft 18 kts 340°
2026-05-06 19:43 37.44133 25.34546 408 ft 22 kts 341°
2026-05-06 19:43 37.44275 25.34510 405 ft 16 kts 16°
2026-05-06 19:44 37.44306 25.34472 404 ft 3 kts 239°
2026-05-06 19:44 37.44286 25.34481 405 ft 8 kts 160°
2026-05-06 19:44 37.43985 25.34614 411 ft 86 kts 161°
2026-05-06 19:44 37.43188 25.34965 410 ft 154 kts 161°
2026-05-06 19:45 37.42120 25.35429 1022 ft 167 kts 162°
2026-05-06 19:45 37.41007 25.35937 1807 ft 171 kts 162°
2026-05-06 19:45 37.39910 25.36462 2462 ft 167 kts 161°
2026-05-06 19:45 37.38833 25.37002 3044 ft 166 kts 160°
2026-05-06 19:46 37.37701 25.37512 3392 ft 183 kts 162°
2026-05-06 19:46 37.36436 25.38043 3727 ft 198 kts 162°
2026-05-06 19:46 37.35078 25.38401 4206 ft 203 kts 185°
2026-05-06 19:46 37.33769 25.37792 4296 ft 207 kts 223°
2026-05-06 19:47 37.32918 25.36250 4450 ft 227 kts 244°
2026-05-06 19:47 37.32165 25.34436 4892 ft 237 kts 244°
2026-05-06 19:47 37.31395 25.32596 5602 ft 239 kts 243°
2026-05-06 19:47 37.30820 25.30570 5911 ft 258 kts 266°
2026-05-06 19:48 37.31055 25.28295 6334 ft 269 kts 286°
2026-05-06 19:48 37.31553 25.26010 6971 ft 273 kts 286°
2026-05-06 19:48 37.32054 25.23703 7650 ft 276 kts 286°
2026-05-06 19:48 37.32559 25.21366 8332 ft 278 kts 286°
2026-05-06 19:49 37.33066 25.19007 9021 ft 281 kts 287°
2026-05-06 19:49 37.33578 25.16621 9712 ft 284 kts 287°
2026-05-06 19:49 37.34095 25.14210 10352 ft 287 kts 287°
2026-05-06 19:49 37.34614 25.11782 10992 ft 289 kts 287°
2026-05-06 19:50 37.35136 25.09330 11403 ft 292 kts 287°
2026-05-06 19:50 37.35659 25.06876 11494 ft 290 kts 287°
2026-05-06 19:50 37.36179 25.04419 11509 ft 290 kts 286°
2026-05-06 19:50 37.36727 25.01965 11564 ft 299 kts 288°
2026-05-06 19:51 37.37388 24.99387 11690 ft 320 kts 289°
2026-05-06 19:51 37.38127 24.96661 11877 ft 336 kts 290°
2026-05-06 19:51 37.38887 24.93900 12363 ft 342 kts 290°
2026-05-06 19:51 37.39664 24.91057 12953 ft 344 kts 290°
2026-05-06 19:52 37.40438 24.88194 13575 ft 347 kts 290°
2026-05-06 19:52 37.41209 24.85315 14153 ft 349 kts 290°
2026-05-06 19:52 37.41980 24.82411 14702 ft 351 kts 290°
2026-05-06 19:52 37.42749 24.79488 15240 ft 353 kts 290°
2026-05-06 19:53 37.43519 24.76552 15768 ft 355 kts 290°
2026-05-06 19:53 37.44297 24.73593 16303 ft 357 kts 290°
2026-05-06 19:53 37.45081 24.70621 16817 ft 359 kts 290°
2026-05-06 19:53 37.45868 24.67629 17341 ft 361 kts 290°
2026-05-06 19:54 37.46659 24.64622 17846 ft 363 kts 290°
2026-05-06 19:54 37.47455 24.61593 18353 ft 365 kts 290°
2026-05-06 19:54 37.48254 24.58542 18785 ft 368 kts 290°
2026-05-06 19:54 37.49055 24.55479 19207 ft 370 kts 290°
2026-05-06 19:55 37.49863 24.52395 19622 ft 372 kts 290°
2026-05-06 19:55 37.50677 24.49289 20041 ft 374 kts 290°
2026-05-06 19:55 37.51494 24.46170 20446 ft 376 kts 290°
2026-05-06 19:55 37.52310 24.43031 20843 ft 378 kts 290°
2026-05-06 19:56 37.53129 24.39872 21254 ft 380 kts 290°
2026-05-06 19:56 37.53950 24.36694 21450 ft 382 kts 290°
2026-05-06 19:56 37.54774 24.33504 21489 ft 383 kts 290°
2026-05-06 19:56 37.55599 24.30317 21482 ft 383 kts 290°
2026-05-06 19:57 37.56447 24.27129 21705 ft 385 kts 290°
2026-05-06 19:57 37.57333 24.23938 22133 ft 386 kts 291°
2026-05-06 19:57 37.58240 24.20744 22523 ft 388 kts 291°
2026-05-06 19:57 37.59157 24.17529 22910 ft 390 kts 291°
2026-05-06 19:58 37.60075 24.14303 23301 ft 393 kts 291°
2026-05-06 19:58 37.60995 24.11047 23656 ft 395 kts 291°
2026-05-06 19:58 37.61900 24.07821 23982 ft 397 kts 291°
2026-05-06 19:58 37.62819 24.04530 24317 ft 398 kts 291°
2026-05-06 19:59 37.63742 24.01225 24652 ft 400 kts 291°
2026-05-06 19:59 37.64665 23.97904 24979 ft 402 kts 290°
2026-05-06 19:59 37.65585 23.94572 25312 ft 403 kts 290°
2026-05-06 19:59 37.66509 23.91218 25629 ft 405 kts 290°
2026-05-06 20:00 37.67436 23.87857 25955 ft 406 kts 290°
2026-05-06 20:00 37.68368 23.84486 26275 ft 408 kts 290°
2026-05-06 20:00 37.69303 23.81103 26595 ft 409 kts 290°
2026-05-06 20:00 37.70241 23.77701 26894 ft 411 kts 290°
2026-05-06 20:01 37.71181 23.74285 27187 ft 412 kts 290°
2026-05-06 20:01 37.72126 23.70851 27448 ft 415 kts 290°
2026-05-06 20:01 37.73076 23.67403 27741 ft 417 kts 290°
2026-05-06 20:01 37.74029 23.63938 28035 ft 419 kts 290°
2026-05-06 20:02 37.74985 23.60448 28309 ft 420 kts 290°
2026-05-06 20:02 37.75939 23.56958 28385 ft 421 kts 290°
2026-05-06 20:02 37.77851 23.49971 28384 ft 420 kts 290°
2026-05-06 20:03 37.79755 23.42987 28384 ft 420 kts 290°
2026-05-06 20:03 37.80706 23.39488 28637 ft 422 kts 290°
2026-05-06 20:03 37.81657 23.35968 28941 ft 423 kts 290°
2026-05-06 20:04 37.82610 23.32437 29233 ft 425 kts 290°
2026-05-06 20:04 37.83566 23.28896 29513 ft 427 kts 290°
2026-05-06 20:04 37.84528 23.25336 29780 ft 428 kts 290°
2026-05-06 20:04 37.85491 23.21764 30039 ft 430 kts 290°
2026-05-06 20:05 37.86455 23.18181 30260 ft 431 kts 290°
2026-05-06 20:05 37.87423 23.14585 30464 ft 432 kts 290°
2026-05-06 20:05 37.88395 23.10975 30660 ft 433 kts 290°
2026-05-06 20:05 37.89369 23.07357 30851 ft 434 kts 290°
2026-05-06 20:06 37.90339 23.03737 31104 ft 434 kts 289°
2026-05-06 20:06 37.91302 23.00119 31364 ft 433 kts 289°
2026-05-06 20:06 37.92385 22.96568 31477 ft 433 kts 296°
2026-05-06 20:06 37.93888 22.93328 31494 ft 432 kts 306°
2026-05-06 20:07 37.95828 22.90434 31742 ft 431 kts 315°
2026-05-06 20:07 37.98022 22.87861 32077 ft 428 kts 317°
2026-05-06 20:07 38.00209 22.85315 32394 ft 426 kts 317°
2026-05-06 20:07 38.02387 22.82771 32666 ft 425 kts 317°
2026-05-06 20:08 38.04565 22.80228 32936 ft 424 kts 317°
2026-05-06 20:08 38.06734 22.77690 33186 ft 424 kts 317°
2026-05-06 20:08 38.08900 22.75153 33420 ft 424 kts 317°
2026-05-06 20:08 38.11069 22.72617 33665 ft 423 kts 317°
2026-05-06 20:09 38.13236 22.70085 33921 ft 423 kts 317°
2026-05-06 20:09 38.15402 22.67566 34169 ft 422 kts 317°
2026-05-06 20:09 38.17566 22.65058 34386 ft 421 kts 317°
2026-05-06 20:09 38.19736 22.62545 34599 ft 421 kts 317°
2026-05-06 20:10 38.21897 22.60037 34794 ft 420 kts 317°
2026-05-06 20:10 38.24052 22.57529 35028 ft 420 kts 317°
2026-05-06 20:10 38.26200 22.55026 35274 ft 418 kts 316°
2026-05-06 20:10 38.28342 22.52525 35487 ft 417 kts 316°
2026-05-06 20:11 38.30480 22.50028 35687 ft 417 kts 316°
2026-05-06 20:11 38.32616 22.47531 35879 ft 417 kts 316°
2026-05-06 20:11 38.34751 22.45027 36056 ft 417 kts 316°
2026-05-06 20:11 38.36886 22.42522 36100 ft 417 kts 316°
2026-05-06 20:12 38.41155 22.37517 36102 ft 416 kts 317°
2026-05-06 20:12 38.45384 22.32553 36111 ft 416 kts 317°
2026-05-06 20:13 38.49640 22.27544 36107 ft 416 kts 316°
2026-05-06 20:13 38.53885 22.22529 36105 ft 415 kts 316°
2026-05-06 20:14 38.58127 22.17505 36117 ft 416 kts 316°
2026-05-06 20:14 38.62385 22.12479 36125 ft 417 kts 317°
2026-05-06 20:15 38.66636 22.07448 36129 ft 416 kts 317°
2026-05-06 20:15 38.70874 22.02408 36142 ft 415 kts 317°
2026-05-06 20:16 38.75111 21.97365 36147 ft 415 kts 317°
2026-05-06 20:16 38.79345 21.92320 36159 ft 415 kts 317°
2026-05-06 20:17 38.83540 21.87311 36155 ft 414 kts 317°
2026-05-06 20:17 38.87756 21.82276 36156 ft 414 kts 317°
2026-05-06 20:18 38.91958 21.77234 36145 ft 413 kts 317°
2026-05-06 20:18 38.96158 21.72191 36150 ft 413 kts 317°
2026-05-06 20:19 38.99669 21.67968 36142 ft 413 kts 317°
2026-05-06 20:19 39.03860 21.62921 36145 ft 413 kts 317°
2026-05-06 20:20 39.08018 21.57906 36134 ft 412 kts 317°
2026-05-06 20:20 39.12229 21.52826 36149 ft 412 kts 316°
2026-05-06 20:21 39.16402 21.47772 36148 ft 411 kts 316°
2026-05-06 20:21 39.20569 21.42722 36142 ft 411 kts 316°
2026-05-06 20:22 39.24706 21.37705 36153 ft 411 kts 316°
2026-05-06 20:22 39.28864 21.32655 36141 ft 410 kts 316°
2026-05-06 20:23 39.33015 21.27594 36138 ft 410 kts 316°
2026-05-06 20:23 39.37160 21.22525 36168 ft 410 kts 316°
2026-05-06 20:24 39.41302 21.17458 36159 ft 409 kts 316°
2026-05-06 20:24 39.45440 21.12401 36161 ft 409 kts 316°
2026-05-06 20:25 39.49577 21.07329 36168 ft 409 kts 316°
2026-05-06 20:25 39.53713 21.02253 36171 ft 409 kts 316°
2026-05-06 20:26 39.57834 20.97172 36176 ft 409 kts 316°
2026-05-06 20:26 39.61955 20.92085 36192 ft 409 kts 316°
2026-05-06 20:27 39.66073 20.87003 36193 ft 409 kts 316°
2026-05-06 20:27 39.70227 20.81964 36187 ft 409 kts 321°
2026-05-06 20:28 39.74824 20.77615 36191 ft 409 kts 322°
2026-05-06 20:28 39.79398 20.73284 36186 ft 409 kts 322°
2026-05-06 20:29 39.84000 20.68919 36181 ft 409 kts 322°
2026-05-06 20:29 39.88592 20.64555 36172 ft 409 kts 322°
2026-05-06 20:30 39.95492 20.57992 36165 ft 409 kts 322°
2026-05-06 20:31 40.00089 20.53614 36151 ft 409 kts 322°
2026-05-06 20:31 40.04680 20.49232 36156 ft 409 kts 322°
2026-05-06 20:32 40.09274 20.44846 36148 ft 409 kts 322°
2026-05-06 20:32 40.13865 20.40441 36146 ft 409 kts 321°
2026-05-06 20:33 40.18447 20.36003 36157 ft 410 kts 321°
2026-05-06 20:33 40.23028 20.31566 36146 ft 410 kts 321°
2026-05-06 20:34 40.27587 20.27157 36143 ft 410 kts 321°
2026-05-06 20:34 40.32207 20.22683 36141 ft 410 kts 321°
2026-05-06 20:35 40.36769 20.18248 36132 ft 410 kts 321°
2026-05-06 20:35 40.41353 20.13780 36139 ft 411 kts 321°
2026-05-06 20:36 40.45946 20.09312 36129 ft 411 kts 321°
2026-05-06 20:36 40.50545 20.04828 36119 ft 412 kts 321°
2026-05-06 20:37 40.55146 20.00330 36123 ft 412 kts 321°
2026-05-06 20:37 40.59747 19.95829 36122 ft 412 kts 321°
2026-05-06 20:38 40.64344 19.91317 36118 ft 412 kts 321°
2026-05-06 20:38 40.68939 19.86804 36124 ft 412 kts 320°
2026-05-06 20:39 40.73540 19.82273 36119 ft 413 kts 320°
2026-05-06 20:39 40.78105 19.77771 36116 ft 413 kts 320°
2026-05-06 20:40 40.82704 19.73225 36118 ft 413 kts 320°
2026-05-06 20:40 40.87297 19.68681 36118 ft 413 kts 320°
2026-05-06 20:41 40.91889 19.64123 36125 ft 413 kts 320°
2026-05-06 20:41 40.96484 19.59554 36120 ft 413 kts 320°
2026-05-06 20:42 41.01080 19.54991 36119 ft 413 kts 320°
2026-05-06 20:42 41.05675 19.50418 36112 ft 413 kts 320°
2026-05-06 20:43 41.10261 19.45824 36118 ft 413 kts 319°
2026-05-06 20:43 41.14857 19.41225 36114 ft 414 kts 319°
2026-05-06 20:44 41.19455 19.36615 36106 ft 414 kts 319°
2026-05-06 20:44 41.24017 19.32028 36104 ft 414 kts 319°
2026-05-06 20:45 41.28616 19.27404 36110 ft 415 kts 319°
2026-05-06 20:45 41.33218 19.22771 36098 ft 415 kts 319°
2026-05-06 20:46 41.37811 19.18131 36104 ft 415 kts 319°
2026-05-06 20:46 41.42408 19.13474 36111 ft 415 kts 319°
2026-05-06 20:47 41.47001 19.08821 36111 ft 415 kts 318°
2026-05-06 20:47 41.51593 19.04143 36109 ft 415 kts 318°
2026-05-06 20:48 41.56176 18.99450 36099 ft 415 kts 318°
2026-05-06 20:48 41.60763 18.94751 36101 ft 415 kts 318°
2026-05-06 20:49 41.65320 18.90079 36104 ft 415 kts 318°
2026-05-06 20:49 41.69897 18.85365 36106 ft 415 kts 318°
2026-05-06 20:50 41.74476 18.80646 36102 ft 415 kts 318°
2026-05-06 20:50 41.79048 18.75919 36104 ft 415 kts 317°
2026-05-06 20:51 41.83625 18.71188 36100 ft 416 kts 317°
2026-05-06 20:51 41.88210 18.66437 36092 ft 416 kts 317°
2026-05-06 20:52 41.92791 18.61674 36106 ft 416 kts 317°
2026-05-06 20:52 41.97373 18.56909 36095 ft 416 kts 317°
2026-05-06 20:53 42.01838 18.51993 36096 ft 411 kts 309°
2026-05-06 20:53 42.05583 18.46227 36096 ft 409 kts 306°
2026-05-06 20:54 42.09305 18.40422 36096 ft 410 kts 306°
2026-05-06 20:54 42.13042 18.34611 36092 ft 411 kts 306°
2026-05-06 20:55 42.16757 18.28815 36100 ft 411 kts 306°
2026-05-06 20:55 42.20488 18.22969 36100 ft 411 kts 306°
2026-05-06 20:56 42.24226 18.17110 36096 ft 411 kts 306°
2026-05-06 20:56 42.27956 18.11246 36093 ft 411 kts 306°
2026-05-06 20:57 42.31688 18.05373 36098 ft 411 kts 306°
2026-05-06 20:57 42.35409 17.99498 36092 ft 411 kts 306°
2026-05-06 20:58 42.39126 17.93619 36094 ft 411 kts 306°
2026-05-06 20:58 42.42846 17.87730 36094 ft 412 kts 306°
2026-05-06 20:59 42.46562 17.81830 36087 ft 411 kts 306°
2026-05-06 20:59 42.50272 17.75924 36084 ft 411 kts 306°
2026-05-06 21:00 42.53982 17.70014 36088 ft 412 kts 305°
2026-05-06 21:00 42.57691 17.64090 36085 ft 412 kts 305°
2026-05-06 21:01 42.61395 17.58161 36075 ft 412 kts 305°
2026-05-06 21:01 42.65097 17.52228 36076 ft 412 kts 305°
2026-05-06 21:02 42.68804 17.46287 36084 ft 412 kts 305°
2026-05-06 21:02 42.72505 17.40335 36073 ft 412 kts 304°
2026-05-06 21:03 42.76180 17.34400 36079 ft 412 kts 304°
2026-05-06 21:03 42.79875 17.28425 36069 ft 413 kts 304°
2026-05-06 21:04 42.83575 17.22438 36069 ft 413 kts 304°
2026-05-06 21:04 42.87272 17.16451 36063 ft 413 kts 304°
2026-05-06 21:05 42.90959 17.10451 36063 ft 413 kts 304°
2026-05-06 21:05 42.94025 17.05440 36087 ft 413 kts 304°
2026-05-06 21:06 42.97708 16.99410 36069 ft 414 kts 304°
2026-05-06 21:06 43.01402 16.93364 36061 ft 415 kts 304°
2026-05-06 21:07 43.05105 16.87306 36060 ft 415 kts 304°
2026-05-06 21:07 43.08805 16.81240 36059 ft 416 kts 304°
2026-05-06 21:08 43.12499 16.75148 36052 ft 416 kts 304°
2026-05-06 21:08 43.16193 16.69053 36076 ft 416 kts 304°
2026-05-06 21:09 43.19895 16.62942 36070 ft 417 kts 303°
2026-05-06 21:09 43.23599 16.56793 36032 ft 419 kts 303°
2026-05-06 21:10 43.27287 16.50669 36049 ft 420 kts 303°
2026-05-06 21:10 43.31012 16.44484 36043 ft 420 kts 303°
2026-05-06 21:11 43.34731 16.38278 36042 ft 421 kts 303°
2026-05-06 21:11 43.38454 16.32063 36068 ft 421 kts 303°
2026-05-06 21:12 43.42188 16.25822 36057 ft 422 kts 303°
2026-05-06 21:12 43.45911 16.19584 36070 ft 422 kts 303°
2026-05-06 21:13 43.49623 16.13340 36065 ft 421 kts 303°
2026-05-06 21:13 43.53331 16.07083 36057 ft 421 kts 303°
2026-05-06 21:14 43.57008 16.00875 36043 ft 421 kts 303°
2026-05-06 21:14 43.60705 15.94620 36048 ft 421 kts 303°
2026-05-06 21:15 43.64403 15.88345 36025 ft 422 kts 302°
2026-05-06 21:15 43.68106 15.82050 36027 ft 422 kts 302°
2026-05-06 21:16 43.71815 15.75744 36012 ft 423 kts 302°
2026-05-06 21:16 43.75514 15.69416 36013 ft 423 kts 302°
2026-05-06 21:17 43.79214 15.63080 36042 ft 423 kts 302°
2026-05-06 21:17 43.82924 15.56742 36029 ft 424 kts 302°
2026-05-06 21:18 43.86631 15.50384 36023 ft 425 kts 302°
2026-05-06 21:18 43.90339 15.44002 36019 ft 425 kts 302°
2026-05-06 21:19 43.94042 15.37608 36020 ft 425 kts 302°
2026-05-06 21:19 43.97741 15.31203 36026 ft 425 kts 302°
2026-05-06 21:20 44.01439 15.24782 36027 ft 426 kts 302°
2026-05-06 21:20 44.05146 15.18339 36017 ft 427 kts 302°
2026-05-06 21:21 44.08859 15.11881 36016 ft 427 kts 302°
2026-05-06 21:21 44.12542 15.05453 36015 ft 427 kts 302°
2026-05-06 21:22 44.16251 14.98970 36040 ft 427 kts 302°
2026-05-06 21:22 44.19954 14.92484 36019 ft 428 kts 302°
2026-05-06 21:23 44.23658 14.85983 36016 ft 428 kts 302°
2026-05-06 21:23 44.27358 14.79468 36015 ft 429 kts 302°
2026-05-06 21:24 44.31058 14.72935 36015 ft 429 kts 302°
2026-05-06 21:24 44.34756 14.66393 36016 ft 429 kts 302°
2026-05-06 21:25 44.38429 14.59874 36020 ft 429 kts 302°
2026-05-06 21:25 44.42119 14.53312 36021 ft 429 kts 302°
2026-05-06 21:26 44.45814 14.46747 36013 ft 429 kts 302°
2026-05-06 21:26 44.49497 14.40172 36041 ft 429 kts 302°
2026-05-06 21:27 44.53166 14.33609 35997 ft 427 kts 301°
2026-05-06 21:27 44.56820 14.27040 35994 ft 427 kts 301°
2026-05-06 21:28 44.60481 14.20467 36001 ft 428 kts 301°
2026-05-06 21:28 44.64146 14.13875 35997 ft 428 kts 301°
2026-05-06 21:29 44.67801 14.07275 36007 ft 427 kts 301°
2026-05-06 21:29 44.71441 14.00689 36001 ft 426 kts 301°
2026-05-06 21:30 44.75078 13.94086 35994 ft 427 kts 301°
2026-05-06 21:30 44.78714 13.87483 35994 ft 427 kts 301°
2026-05-06 21:31 44.82357 13.80859 35998 ft 427 kts 301°
2026-05-06 21:31 44.85979 13.74240 35985 ft 426 kts 301°
2026-05-06 21:32 44.89593 13.67620 35979 ft 426 kts 301°
2026-05-06 21:32 44.94988 13.57697 35990 ft 427 kts 301°
2026-05-06 21:33 44.98608 13.51042 35979 ft 427 kts 301°
2026-05-06 21:33 45.02219 13.44371 35994 ft 427 kts 300°
2026-05-06 21:34 45.05823 13.37691 35977 ft 427 kts 301°
2026-05-06 21:34 45.09435 13.31004 35976 ft 427 kts 301°
2026-05-06 21:35 45.13042 13.24314 35966 ft 427 kts 300°
2026-05-06 21:35 45.16644 13.17602 35996 ft 428 kts 300°
2026-05-06 21:36 45.20236 13.10900 35946 ft 426 kts 300°
2026-05-06 21:36 45.23806 13.04200 35938 ft 427 kts 300°
2026-05-06 21:37 45.27222 12.97410 35942 ft 422 kts 295°
2026-05-06 21:37 45.30333 12.90257 35936 ft 423 kts 295°
2026-05-06 21:38 45.33418 12.83184 35964 ft 424 kts 295°
2026-05-06 21:38 45.36522 12.76047 35949 ft 424 kts 294°
2026-05-06 21:39 45.39613 12.68891 35949 ft 425 kts 294°
2026-05-06 21:39 45.42703 12.61723 35947 ft 425 kts 294°
2026-05-06 21:40 45.45793 12.54545 35931 ft 425 kts 294°
2026-05-06 21:40 45.48884 12.47364 35961 ft 426 kts 294°
2026-05-06 21:41 45.51975 12.40150 35946 ft 426 kts 294°
2026-05-06 21:41 45.55060 12.32916 35944 ft 427 kts 294°
2026-05-06 21:42 45.58138 12.25675 35969 ft 427 kts 294°
2026-05-06 21:42 45.61223 12.18418 35998 ft 427 kts 294°
2026-05-06 21:43 45.64301 12.11154 35976 ft 428 kts 294°
2026-05-06 21:43 45.67379 12.03874 35970 ft 428 kts 294°
2026-05-06 21:44 45.70455 11.96576 35963 ft 428 kts 294°
2026-05-06 21:44 45.73528 11.89261 35963 ft 428 kts 293°
2026-05-06 21:45 45.76595 11.81947 35966 ft 429 kts 294°
2026-05-06 21:45 45.79634 11.74688 35952 ft 428 kts 294°
2026-05-06 21:46 45.82696 11.67360 35961 ft 429 kts 293°
2026-05-06 21:46 45.85751 11.60006 35961 ft 429 kts 293°
2026-05-06 21:47 45.88798 11.52654 35964 ft 429 kts 293°
2026-05-06 21:47 45.91852 11.45288 35973 ft 429 kts 293°
2026-05-06 21:48 45.94900 11.37920 35972 ft 429 kts 293°
2026-05-06 21:48 45.97947 11.30531 35975 ft 429 kts 293°
2026-05-06 21:49 46.00987 11.23133 35978 ft 429 kts 293°
2026-05-06 21:49 46.04014 11.15719 36028 ft 430 kts 294°
2026-05-06 21:50 46.07013 11.08291 35972 ft 428 kts 293°
2026-05-06 21:50 46.09980 11.00837 35976 ft 429 kts 293°
2026-05-06 21:51 46.12439 10.94625 35981 ft 430 kts 293°
2026-05-06 21:51 46.15409 10.87147 35988 ft 430 kts 293°
2026-05-06 21:52 46.18873 10.78437 36013 ft 431 kts 293°
2026-05-06 21:52 46.21370 10.72136 36003 ft 431 kts 293°
2026-05-06 21:53 46.24342 10.64610 35992 ft 432 kts 293°
2026-05-06 21:53 46.27311 10.57066 35984 ft 432 kts 293°
2026-05-06 21:54 46.30277 10.49517 35984 ft 432 kts 293°
2026-05-06 21:54 46.33235 10.41961 35983 ft 430 kts 293°
2026-05-06 21:55 46.36155 10.34479 35961 ft 430 kts 293°
2026-05-06 21:55 46.39083 10.26933 35967 ft 431 kts 293°
2026-05-06 21:56 46.42024 10.19365 35991 ft 431 kts 293°
2026-05-06 21:56 46.44963 10.11789 36009 ft 431 kts 292°
2026-05-06 21:57 46.48003 10.04270 36031 ft 437 kts 300°
2026-05-06 21:57 46.51988 9.97501 35992 ft 442 kts 305°
2026-05-06 21:58 46.56075 9.90793 35999 ft 443 kts 305°
2026-05-06 21:58 46.60150 9.84079 35995 ft 443 kts 305°
2026-05-06 21:59 46.64215 9.77353 35992 ft 443 kts 305°
2026-05-06 21:59 46.68283 9.70604 36000 ft 443 kts 305°
2026-05-06 22:00 46.72341 9.63844 35987 ft 443 kts 305°
2026-05-06 22:00 46.76374 9.57138 35982 ft 443 kts 305°
2026-05-06 22:01 46.80423 9.50371 35977 ft 443 kts 306°
2026-05-06 22:01 46.84474 9.43584 35974 ft 444 kts 306°
2026-05-06 22:02 46.88540 9.36769 35994 ft 444 kts 306°
2026-05-06 22:02 46.92598 9.29946 35988 ft 445 kts 306°
2026-05-06 22:03 46.96657 9.23107 35984 ft 445 kts 306°
2026-05-06 22:03 47.00709 9.16249 35985 ft 445 kts 306°
2026-05-06 22:04 47.04761 9.09376 35983 ft 446 kts 306°
2026-05-06 22:04 47.08812 9.02485 35998 ft 446 kts 306°
2026-05-06 22:05 47.12854 8.95577 35983 ft 446 kts 306°
2026-05-06 22:05 47.16284 8.88130 35972 ft 436 kts 290°
2026-05-06 22:06 47.18464 8.79859 35970 ft 433 kts 286°
2026-05-06 22:06 47.20569 8.71605 35970 ft 434 kts 286°
2026-05-06 22:07 47.22679 8.63280 35985 ft 434 kts 287°
2026-05-06 22:07 47.24786 8.54942 35972 ft 435 kts 287°
2026-05-06 22:08 47.26891 8.46595 35973 ft 435 kts 287°
2026-05-06 22:08 47.29003 8.38231 35978 ft 436 kts 287°
2026-05-06 22:09 47.31103 8.29862 35999 ft 436 kts 287°
2026-05-06 22:09 47.33192 8.21451 35989 ft 437 kts 287°
2026-05-06 22:10 47.35270 8.13028 35982 ft 437 kts 287°
2026-05-06 22:10 47.37350 8.04600 35980 ft 437 kts 287°
2026-05-06 22:11 47.39433 7.96174 35986 ft 437 kts 287°
2026-05-06 22:11 47.41506 7.87737 35988 ft 437 kts 287°
2026-05-06 22:12 47.43569 7.79291 35991 ft 437 kts 287°
2026-05-06 22:12 47.45625 7.70834 35993 ft 437 kts 286°
2026-05-06 22:13 47.47383 7.62276 35995 ft 435 kts 281°
2026-05-06 22:13 47.48833 7.53602 35997 ft 435 kts 281°
2026-05-06 22:14 47.50285 7.44919 35983 ft 435 kts 281°
2026-05-06 22:14 47.51734 7.36222 35989 ft 435 kts 281°
2026-05-06 22:15 47.53174 7.27519 35979 ft 436 kts 281°
2026-05-06 22:15 47.54603 7.18807 35967 ft 436 kts 281°
2026-05-06 22:16 47.56024 7.10085 35987 ft 436 kts 281°
2026-05-06 22:16 47.57433 7.01410 35977 ft 436 kts 281°
2026-05-06 22:17 47.58847 6.92676 35974 ft 436 kts 281°
2026-05-06 22:17 47.60255 6.83930 35978 ft 436 kts 281°
2026-05-06 22:18 47.61657 6.75180 35972 ft 436 kts 281°
2026-05-06 22:18 47.63052 6.66426 35977 ft 437 kts 281°
2026-05-06 22:19 47.64443 6.57639 35970 ft 437 kts 281°
2026-05-06 22:19 47.65822 6.48856 35968 ft 437 kts 281°
2026-05-06 22:20 47.67199 6.40059 35968 ft 438 kts 281°
2026-05-06 22:20 47.68572 6.31248 35969 ft 438 kts 281°
2026-05-06 22:21 47.70155 6.22507 35976 ft 439 kts 285°
2026-05-06 22:21 47.72066 6.13901 35972 ft 439 kts 287°
2026-05-06 22:22 47.73987 6.05340 35976 ft 439 kts 286°
2026-05-06 22:22 47.75835 5.96695 35975 ft 439 kts 285°
2026-05-06 22:23 47.77637 5.88025 35981 ft 439 kts 285°
2026-05-06 22:23 47.79432 5.79352 35982 ft 439 kts 285°
2026-05-06 22:24 47.81236 5.70683 35984 ft 439 kts 286°
2026-05-06 22:24 47.83045 5.62015 35984 ft 439 kts 285°
2026-05-06 22:25 47.84838 5.53325 35988 ft 438 kts 285°
2026-05-06 22:25 47.86616 5.44648 35988 ft 438 kts 286°
2026-05-06 22:26 47.88387 5.35957 35991 ft 438 kts 286°
2026-05-06 22:26 47.90325 5.27339 35993 ft 439 kts 294°
2026-05-06 22:27 47.93749 5.19813 35992 ft 442 kts 311°
2026-05-06 22:27 47.97884 5.13025 35990 ft 442 kts 311°
2026-05-06 22:28 48.02014 5.06200 35997 ft 442 kts 311°
2026-05-06 22:28 48.06107 4.99412 35997 ft 442 kts 311°
2026-05-06 22:29 48.10228 4.92576 36003 ft 442 kts 311°
2026-05-06 22:29 48.14348 4.85726 35999 ft 442 kts 310°
2026-05-06 22:30 48.18458 4.78875 35999 ft 442 kts 310°
2026-05-06 22:30 48.22561 4.72006 35998 ft 442 kts 310°
2026-05-06 22:31 48.26658 4.65135 36005 ft 442 kts 311°
2026-05-06 22:31 48.30753 4.58248 36004 ft 441 kts 310°
2026-05-06 22:32 48.34843 4.51364 36003 ft 441 kts 310°
2026-05-06 22:32 48.38891 4.44514 36008 ft 441 kts 310°
2026-05-06 22:33 48.42966 4.37606 36007 ft 441 kts 310°
2026-05-06 22:33 48.47041 4.30696 36005 ft 441 kts 310°
2026-05-06 22:34 48.51107 4.23783 36002 ft 440 kts 310°
2026-05-06 22:34 48.54475 4.18022 36002 ft 440 kts 310°
2026-05-06 22:35 48.58519 4.11091 36008 ft 440 kts 310°
2026-05-06 22:35 48.62569 4.04152 36005 ft 440 kts 310°
2026-05-06 22:36 48.66614 3.97207 36005 ft 440 kts 310°
2026-05-06 22:36 48.70645 3.90250 36000 ft 440 kts 310°
2026-05-06 22:37 48.74753 3.83393 36005 ft 440 kts 314°
2026-05-06 22:37 48.79107 3.76964 36008 ft 440 kts 316°
2026-05-06 22:38 48.83556 3.70582 36006 ft 440 kts 315°
2026-05-06 22:38 48.87948 3.64113 36009 ft 440 kts 315°
2026-05-06 22:39 48.92296 3.57577 36006 ft 440 kts 314°
2026-05-06 22:39 48.96637 3.51022 36014 ft 440 kts 314°
2026-05-06 22:40 49.00979 3.44479 36015 ft 439 kts 314°
2026-05-06 22:40 49.05318 3.37920 36016 ft 439 kts 314°
2026-05-06 22:41 49.11776 3.28146 36016 ft 439 kts 314°
2026-05-06 22:42 49.16103 3.21591 36019 ft 439 kts 314°
2026-05-06 22:42 49.20427 3.15007 36024 ft 438 kts 314°
2026-05-06 22:43 49.24743 3.08414 36022 ft 438 kts 314°
2026-05-06 22:43 49.29046 3.01812 36031 ft 438 kts 314°
2026-05-06 22:44 49.33352 2.95196 36028 ft 437 kts 314°
2026-05-06 22:44 49.37621 2.88623 36028 ft 437 kts 314°
2026-05-06 22:45 49.41898 2.82002 36025 ft 437 kts 314°
2026-05-06 22:45 49.46177 2.75359 36029 ft 437 kts 314°
2026-05-06 22:46 49.50463 2.68720 36034 ft 437 kts 314°
2026-05-06 22:46 49.54726 2.62100 36037 ft 436 kts 314°
2026-05-06 22:47 49.58986 2.55448 36031 ft 435 kts 314°
2026-05-06 22:47 49.63128 2.48667 36029 ft 435 kts 311°
2026-05-06 22:48 49.67012 2.41536 36029 ft 434 kts 309°
2026-05-06 22:48 49.70844 2.34321 36035 ft 434 kts 309°
2026-05-06 22:49 49.74719 2.27166 36031 ft 434 kts 310°
2026-05-06 22:49 49.78625 2.20055 36033 ft 433 kts 310°
2026-05-06 22:50 49.82523 2.12943 35905 ft 433 kts 310°
2026-05-06 22:50 49.84443 2.09422 35382 ft 432 kts 310°
2026-05-06 22:50 49.86367 2.05880 34904 ft 429 kts 310°
2026-05-06 22:50 49.88280 2.02349 34432 ft 425 kts 310°
2026-05-06 22:51 49.90168 1.98856 33966 ft 422 kts 310°
2026-05-06 22:51 49.92051 1.95375 33459 ft 418 kts 310°
2026-05-06 22:51 49.93908 1.91939 33004 ft 413 kts 310°
2026-05-06 22:51 49.95737 1.88546 32550 ft 407 kts 310°
2026-05-06 22:52 49.97543 1.85194 32084 ft 403 kts 310°
2026-05-06 22:52 49.99329 1.81872 31643 ft 398 kts 309°
2026-05-06 22:52 50.01096 1.78588 31207 ft 393 kts 309°
2026-05-06 22:52 50.02837 1.75344 30772 ft 389 kts 309°
2026-05-06 22:53 50.04562 1.72129 30344 ft 385 kts 309°
2026-05-06 22:53 50.06269 1.68940 29893 ft 381 kts 310°
2026-05-06 22:53 50.08106 1.66010 29458 ft 377 kts 318°
2026-05-06 22:53 50.10096 1.63329 29016 ft 381 kts 318°
2026-05-06 22:54 50.12106 1.60614 28578 ft 382 kts 318°
2026-05-06 22:54 50.14107 1.57899 28122 ft 380 kts 318°
2026-05-06 22:54 50.16093 1.55198 27690 ft 378 kts 318°
2026-05-06 22:54 50.18070 1.52507 27256 ft 376 kts 318°
2026-05-06 22:55 50.20027 1.49840 26828 ft 373 kts 318°
2026-05-06 22:55 50.21980 1.47178 26407 ft 371 kts 318°
2026-05-06 22:55 50.23916 1.44539 25966 ft 369 kts 318°
2026-05-06 22:55 50.25841 1.41911 25541 ft 366 kts 318°
2026-05-06 22:56 50.27755 1.39295 25120 ft 364 kts 318°
2026-05-06 22:56 50.29656 1.36691 24704 ft 362 kts 318°
2026-05-06 22:56 50.31543 1.34103 24284 ft 360 kts 317°
2026-05-06 22:56 50.33415 1.31529 23871 ft 358 kts 317°
2026-05-06 22:57 50.35275 1.28966 23433 ft 355 kts 317°
2026-05-06 22:57 50.37127 1.26405 23000 ft 353 kts 317°
2026-05-06 22:57 50.38964 1.23869 22592 ft 351 kts 317°
2026-05-06 22:57 50.40788 1.21348 22189 ft 349 kts 317°
2026-05-06 22:58 50.42604 1.18840 21787 ft 347 kts 317°
2026-05-06 22:58 50.44413 1.16344 21385 ft 344 kts 317°
2026-05-06 22:58 50.46203 1.13873 20989 ft 342 kts 317°
2026-05-06 22:58 50.47982 1.11412 20577 ft 340 kts 317°
2026-05-06 22:59 50.49754 1.08964 20197 ft 338 kts 317°
2026-05-06 22:59 50.51483 1.06544 19818 ft 336 kts 314°
2026-05-06 22:59 50.53078 1.03890 19446 ft 333 kts 312°
2026-05-06 22:59 50.54655 1.01230 19070 ft 331 kts 312°
2026-05-06 23:00 50.56227 0.98584 18705 ft 329 kts 312°
2026-05-06 23:00 50.57786 0.95960 18334 ft 327 kts 312°
2026-05-06 23:00 50.59334 0.93349 17933 ft 325 kts 312°
2026-05-06 23:00 50.60877 0.90742 17567 ft 324 kts 312°
2026-05-06 23:01 50.62409 0.88154 17209 ft 322 kts 312°
2026-05-06 23:01 50.63934 0.85580 16844 ft 321 kts 312°
2026-05-06 23:01 50.65451 0.83018 16499 ft 318 kts 312°
2026-05-06 23:01 50.66946 0.80493 16124 ft 313 kts 312°
2026-05-06 23:02 50.68392 0.77954 15725 ft 310 kts 310°
2026-05-06 23:02 50.69768 0.75334 15219 ft 309 kts 308°
2026-05-06 23:02 50.71101 0.72685 14797 ft 307 kts 308°
2026-05-06 23:02 50.72396 0.70079 14393 ft 304 kts 308°
2026-05-06 23:03 50.73709 0.67446 13933 ft 303 kts 308°
2026-05-06 23:03 50.75013 0.64851 13410 ft 303 kts 308°
2026-05-06 23:03 50.76320 0.62265 13045 ft 298 kts 308°
2026-05-06 23:03 50.77616 0.59708 12539 ft 298 kts 309°
2026-05-06 23:04 50.78904 0.57173 12162 ft 293 kts 309°
2026-05-06 23:04 50.80179 0.54663 11684 ft 291 kts 309°
2026-05-06 23:04 50.81432 0.52192 11083 ft 285 kts 309°
2026-05-06 23:04 50.82672 0.49749 10653 ft 285 kts 308°
2026-05-06 23:05 50.83905 0.47317 10284 ft 282 kts 308°
2026-05-06 23:05 50.85130 0.44894 9909 ft 280 kts 308°
2026-05-06 23:05 50.86344 0.42492 9516 ft 279 kts 309°
2026-05-06 23:05 50.87558 0.40094 9140 ft 278 kts 309°
2026-05-06 23:06 50.88763 0.37711 8782 ft 277 kts 309°
2026-05-06 23:06 50.89948 0.35364 8423 ft 276 kts 308°
2026-05-06 23:06 50.91141 0.32990 8059 ft 275 kts 308°
2026-05-06 23:06 50.92324 0.30634 7709 ft 273 kts 309°
2026-05-06 23:07 50.93507 0.28277 7350 ft 272 kts 309°
2026-05-06 23:07 50.94686 0.25928 6986 ft 272 kts 308°
2026-05-06 23:07 50.95857 0.23581 6633 ft 271 kts 308°
2026-05-06 23:07 50.97022 0.21218 6270 ft 271 kts 308°
2026-05-06 23:08 50.98174 0.18872 5900 ft 269 kts 308°
2026-05-06 23:08 50.99316 0.16543 5507 ft 267 kts 308°
2026-05-06 23:08 51.00454 0.14221 5154 ft 265 kts 307°
2026-05-06 23:08 51.01378 0.11718 4799 ft 261 kts 292°
2026-05-06 23:09 51.01830 0.08965 4636 ft 259 kts 277°
2026-05-06 23:09 51.01960 0.06126 4561 ft 262 kts 274°
2026-05-06 23:09 51.02084 0.03207 4459 ft 262 kts 274°
2026-05-06 23:09 51.02209 0.00358 4352 ft 262 kts 274°
2026-05-06 23:10 51.02335 -0.02518 4248 ft 260 kts 275°
2026-05-06 23:10 51.02462 -0.05388 4138 ft 260 kts 274°
2026-05-06 23:10 51.02585 -0.08245 4038 ft 259 kts 274°
2026-05-06 23:10 51.02704 -0.11103 3932 ft 258 kts 275°
2026-05-06 23:11 51.02822 -0.13955 3823 ft 258 kts 274°
2026-05-06 23:11 51.02938 -0.16802 3719 ft 259 kts 274°
2026-05-06 23:11 51.03056 -0.19655 3610 ft 259 kts 274°
2026-05-06 23:11 51.03175 -0.22509 3503 ft 258 kts 274°
2026-05-06 23:12 51.03292 -0.25350 3398 ft 258 kts 274°
2026-05-06 23:12 51.03408 -0.28194 3291 ft 258 kts 274°
2026-05-06 23:12 51.03523 -0.31039 3178 ft 258 kts 274°
2026-05-06 23:12 51.03637 -0.33879 3061 ft 258 kts 274°
2026-05-06 23:13 51.03750 -0.36686 3000 ft 257 kts 274°
2026-05-06 23:13 51.03866 -0.39571 3005 ft 258 kts 274°
2026-05-06 23:13 51.03977 -0.42373 3004 ft 256 kts 274°
2026-05-06 23:13 51.04085 -0.45100 3001 ft 239 kts 275°
2026-05-06 23:14 51.04184 -0.47649 3001 ft 222 kts 275°
2026-05-06 23:14 51.04280 -0.50057 3004 ft 218 kts 275°
2026-05-06 23:14 51.04498 -0.52429 3002 ft 216 kts 295°
2026-05-06 23:14 51.05466 -0.54170 3005 ft 214 kts 334°
2026-05-06 23:15 51.06898 -0.54548 3015 ft 210 kts
2026-05-06 23:15 51.08304 -0.54254 3012 ft 201 kts 12°
2026-05-06 23:15 51.09546 -0.53286 3005 ft 201 kts 41°
2026-05-06 23:15 51.10329 -0.51468 3007 ft 202 kts 71°
2026-05-06 23:16 51.10639 -0.49291 3012 ft 202 kts 78°
2026-05-06 23:16 51.10923 -0.47098 3008 ft 202 kts 78°
2026-05-06 23:16 51.11208 -0.44912 3008 ft 201 kts 78°
2026-05-06 23:16 51.11492 -0.42840 3011 ft 181 kts 76°
2026-05-06 23:17 51.11749 -0.41005 3001 ft 161 kts 76°
2026-05-06 23:17 51.11989 -0.39305 3003 ft 155 kts 76°
2026-05-06 23:17 51.12222 -0.37656 2935 ft 152 kts 77°
2026-05-06 23:17 51.12453 -0.36018 2564 ft 154 kts 77°
2026-05-06 23:18 51.12689 -0.34335 2062 ft 158 kts 76°
2026-05-06 23:18 51.12919 -0.32682 1816 ft 148 kts 76°
2026-05-06 23:18 51.13133 -0.31140 1601 ft 140 kts 76°
2026-05-06 23:18 51.13342 -0.29644 1409 ft 138 kts 76°
2026-05-06 23:19 51.13548 -0.28164 1216 ft 136 kts 75°
2026-05-06 23:19 51.13750 -0.26711 1024 ft 135 kts 76°
2026-05-06 23:19 51.13952 -0.25257 827 ft 135 kts 76°
2026-05-06 23:19 51.14154 -0.23799 643 ft 134 kts 76°
2026-05-06 23:20 51.14355 -0.22354 466 ft 134 kts 76°
2026-05-06 23:20 51.14551 -0.20908 276 ft 133 kts 77°
2026-05-06 23:20 51.14757 -0.19513 215 ft 117 kts 77°
2026-05-06 23:20 51.14863 -0.18678 202 ft 54 kts 78°
2026-05-06 23:21 51.14941 -0.18123 209 ft 47 kts 77°
2026-05-06 23:21 51.15012 -0.17632 207 ft 42 kts 77°
2026-05-06 23:21 51.15093 -0.17277 207 ft 18 kts 54°
2026-05-06 23:21 51.15163 -0.17225 211 ft 8 kts 327°
2026-05-06 23:22 51.15213 -0.17280 209 ft 10 kts 325°
2026-05-06 23:22 51.15277 -0.17349 212 ft 12 kts 334°
2026-05-06 23:22 51.15365 -0.17374 207 ft 14 kts 348°
2026-05-06 23:22 51.15466 -0.17409 211 ft 16 kts 347°
2026-05-06 23:23 51.15581 -0.17450 208 ft 18 kts 347°
2026-05-06 23:23 51.15667 -0.17479 211 ft 20 kts 348°
2026-05-06 23:23 51.15743 -0.17527 211 ft 10 kts 304°
2026-05-06 23:23 51.15744 -0.17630 207 ft 4 kts 260°
2026-05-06 23:24 51.15738 -0.17706 211 ft 6 kts 280°
2026-05-06 23:24 51.15767 -0.17718 206 ft 5 kts 356°
2026-05-06 23:24 51.15796 -0.17725 213 ft 7 kts 348°
2026-05-06 23:24 51.15817 -0.17732 213 ft 0 kts 349°
2026-05-06 23:25 51.15805 -0.17747 213 ft 0 kts 347°